Regional Weather Roundup
Issued by NWS

Home | Current Version | Previous Version | Graphics & Text | Print | Product List | Glossary Off
Versions: 1 2 3 4 5 6 7 8 9 10 11 12 13 14 15 16 17 18 19 20 21 22 23 24 25 26 27 28 29 30 31 32 33 34 35 36 37 38 39 40 41 42 43 44 45 46 47 48 49 50

000
ASUS43 KMPX 210201
RWRMN
WEATHER ROUNDUP FOR MINNESOTA
NATIONAL WEATHER SERVICE TWIN CITIES/CHANHASSEN MN
900 PM CDT MON OCT 20 2014


NOTE: "FAIR" INDICATES FEW OR NO CLOUDS BELOW 12,000 FEET WITH NO
SIGNIFICANT WEATHER AND/OR OBSTRUCTIONS TO VISIBILITY. N/A MEANS
CURRENT SKY AND/OR WEATHER CONDITIONS ARE NOT AVAILABLE.

MNZ060>063-068>070-210300-
   Twin Cities Metro

CITY           SKY/WX    TMP DP  RH WIND       PRES   REMARKS
TWIN CITIES    CLEAR     51  40  65 NE7       30.06R
ST PAUL        CLEAR     50  40  68 CALM      30.07R
CRYSTAL        CLEAR     50  40  68 NE6       30.05R
BLAINE         CLEAR     48  41  76 NE7       30.06R
LAKEVILLE      CLEAR     48  39  71 CALM      30.05R
EDEN PRAIRIE   CLEAR     52  39  61 NE6       30.04R
SOUTH ST PAUL  CLEAR     52  40  62 N6        30.06R
LAKE ELMO      FAIR      48  41  76 NE5       30.07R
$$
MNZ001>005-007-008-013>017-022>024-027-028-210300-
   Northwest Minnesota

CITY           SKY/WX    TMP DP  RH WIND       PRES   REMARKS
BEMIDJI        CLEAR     39  37  91 E3        30.07S
HALLOCK        CLEAR     46  37  71 E8        30.04S
ROSEAU         CLEAR     43  37  81 E8        30.08S
WARROAD        CLEAR     43  39  87 E8        30.09S
THIEF RVR FALL CLEAR     45  37  76 E8        30.06S
CROOKSTON      CLEAR     45  37  76 SE3       30.06S
FOSSTON        CLEAR     37  28  70 E3        30.07S
DETROIT LAKES  CLEAR     46  37  71 E5        30.06S
MOORHEAD       CLEAR     52  39  62 E5        30.05S
PARK RAPIDS    CLEAR     45  39  79 E6        30.07R
MAHNOMEN       FAIR      42  34  73 E5        30.05R HAZE
$$
MNZ006-009>011-018-025>026-210300-
   North Central Minnesota

CITY           SKY/WX    TMP DP  RH WIND       PRES   REMARKS
BAUDETTE       CLEAR     37  34  89 E6        30.10R
FLAG ISLAND    CLEAR     43  37  81 E3        30.09S
INTL FALLS     CLOUDY    44  36  73 E6        30.10S
WASKISH        CLEAR     34  34 100 CALM      30.09S
BIG FORK       PTCLDY    43  36  75 CALM      30.10S
LONGVILLE      CLEAR     37  36  93 CALM      30.08S
GRAND RAPIDS   PTCLDY    45  36  70 N3        30.09S
CRANE LAKE     CLOUDY    43  36  75 NE5       30.13R
ORR            CLOUDY    45  34  65 CALM      30.08R
COOK           CLOUDY    45  36  70 CALM      30.10S
WALKER         FAIR      42  38  87 NE3       30.08R
$$
MNZ012-019>021-037-210300-
   Northeast Minnesota

CITY           SKY/WX    TMP DP  RH WIND       PRES   REMARKS
DULUTH         CLOUDY    46  36  68 NE5       30.08S
ELY            CLOUDY    43  36  75 CALM      30.10R
HIBBING        CLOUDY    46  35  65 NE3       30.10R
EVELETH        CLOUDY    45  36  70 NE3       30.10R
DULUTH HARBOR  CLOUDY    50  41  71 N10       30.10R
TWO HARBORS    CLOUDY    50  27  40 NE5       30.08R
SILVER BAY     CLEAR     46  36  66 N5        30.08R
GRAND MARAIS     N/A     45  35  68 NE3       30.12R
G MARAIS ARPRT CLOUDY    37  30  75 N9        30.09R
$$
MNZ029>031-032-039>041-046>048-054>057-064-210300-
   West Central Minnesota

CITY           SKY/WX    TMP DP  RH WIND       PRES   REMARKS
FERGUS FALLS   CLEAR     50  34  53 CALM      30.05S
WHEATON        CLEAR     46  36  66 E5        30.06R
MORRIS         CLEAR     48  37  66 NE6       30.03S
ALEXANDRIA     CLEAR     45  37  73 NE3       30.06R
ELBOW LAKE     FAIR      46  42  85 NE5       30.04S FOG
WADENA         CLEAR     43  34  70 NE7       30.06R
GLENWOOD       CLEAR     50  37  62 N3        30.05S
APPLETON       CLEAR     45  36  70 CALM      30.03S
BENSON         CLEAR     48  39  71 E3        30.04S
ORTONVILLE     CLEAR     52  37  58 NE3       30.04R
MADISON        CLEAR     54  39  58 CALM      30.04S
WILLMAR        FAIR      50  37  62 CALM      30.06R
$$
MNZ033>034-036-042>043-049>051-058-059-210300-
   Central Minnesota

CITY           SKY/WX    TMP DP  RH WIND       PRES   REMARKS
ST CLOUD       CLEAR     49  38  65 MISG      30.06R
SAUK CENTRE    FAIR      43  37  78 CALM      30.06R
PAYNESVILLE    CLEAR     40  35  84 CALM      30.05S
AITKIN         CLEAR     37  32  81 CALM      30.07R
PINE RIVER     CLEAR     43  37  81 CALM      30.11R
BRAINERD       CLEAR     42  37  82 E3        30.08R
STAPLES        CLEAR     41  36  81 CALM      30.06S
LONG PRAIRIE   FAIR      45  36  70 CALM      30.06R
LITTLE FALLS   CLEAR     46  37  71 NE5       30.07R
LITCHFIELD     CLEAR     46  43  87 CALM      30.05S
BUFFALO        CLEAR     46  38  72 NE6       30.06S
MAPLE LAKE     CLEAR     47  41  80 CALM      30.06R
$$
MNZ037-044-045-052-053-210300-
   East Central Minnesota

CITY           SKY/WX    TMP DP  RH WIND       PRES   REMARKS
PRINCETON      CLEAR     46  39  76 NE5       30.07R
MORA           CLEAR     43  36  75 CALM      30.09S
CAMBRIDGE      CLEAR     48  37  66 CALM      30.06R
RUSH CITY      PTCLDY    43  37  79 CALM      30.08R
MOOSE LAKE     CLOUDY    46  36  66 NE6       30.07R
HINCKLEY       FAIR      41  36  81 CALM      30.08R
CLOQUET        CLOUDY    46  36  66 N7        30.09R
MCGREGOR       CLEAR     41  36  81 CALM      30.09R
$$
MNZ071>073-080-081-089-090-097-098-210300-
   Southwest Minnesota

CITY           SKY/WX    TMP DP  RH WIND       PRES   REMARKS
MONTEVIDEO     CLEAR     50  37  62 E3        30.04F
GRANITE FALLS  CLEAR     47  36  65 CALM      30.05S
CANBY          CLEAR     43  37  79 SW3       30.05S
MARSHALL       CLEAR     46  34  61 CALM      30.03S
REDWOOD FALLS  CLEAR     57  39  51 N3        30.04R
OLIVIA         CLEAR     46  36  66 CALM      30.04R
PIPESTONE      CLEAR     52  36  54 E3        30.05R
WINDOM         CLEAR     50  37  62 CALM      30.05S
WORTHINGTON    CLEAR     45  34  65 NW3       30.06R
JACKSON        CLEAR     43  34  70 CALM      30.05S
TRACY          CLEAR     49  38  65 CALM      30.04S
SLAYTON        CLEAR     46  33  60 CALM      30.05S
$$
MNZ065>067-074>077-082>085-091>093-210300-
   South Central Minnesota

CITY           SKY/WX    TMP DP  RH WIND       PRES   REMARKS
MANKATO        CLEAR     54  36  50 NE3       30.04R
NEW ULM        CLEAR     55  39  54 N3        30.04R
ST JAMES       CLEAR     45  36  70 NW3       30.05R
FAIRMONT       CLEAR     50  36  57 N6        30.04R
GLENCOE        CLEAR     49  39  70 CALM      30.04R
FARIBAULT      CLEAR     48  39  71 CALM      30.05R
OWATONNA       CLEAR     50  39  66 NE7       30.04S
WASECA         CLEAR     43  32  65 N6        30.05S
ALBERT LEA     CLEAR     50  39  66 N5        30.04R
$$
MNZ078>079-086>088-094>096-210300-
   Southeast Minnesota

CITY           SKY/WX    TMP DP  RH WIND       PRES   REMARKS
ROCHESTER      CLEAR     48  40  73 NE7       30.04R
RED WING       CLEAR     52  39  62 E5        30.04R
STANTON        CLEAR     48  39  69 CALM      30.03S
DODGE CENTER   CLEAR     50  39  66 N3        30.04R
WINONA         CLEAR     50  37  62 CALM      30.05R
AUSTIN         CLEAR     48  39  71 CALM      30.03R
PRESTON        CLEAR     48  40  74 N6        30.04R
$$
ABBREVIATIONS USED IN REMARKS
   TC - TEMPERATURES IN CELSIUS
  WCI - WIND CHILL INDEX
   HX - HEAT INDEX
  VSB - VISIBILITY
$$



USA.gov is the U.S. government's official web portal to all federal, state and local government web resources and services.